User: anonymous   Login
Location: Unspecified
(0.0000°N, 0.0000°E)
Time: 14:35:28
(UTC+02:00)
Language:

Cosmos 1515 Rocket - Orbit

View from above orbital plane
View from above orbital plane
View from above satellite
View from above satellite

Ground track
Ground track

The orbit data is extracted from the following two-line orbital elements,

1 14552U 83122B   17200.52773530 +.00000097 +00000-0 +88607-5 0  9995
2 14552 082.5229 046.3551 0018542 055.7196 304.5771 14.83404413813971
Epoch (UTC): 19 July 2017 12:39:56
Eccentricity: 0.0018542
inclination: 82.5229°
perigee height: 605 km
apogee height: 631 km
right ascension of ascending node: 46.3551°
argument of perigee: 55.7196°
revolutions per day: 14.83404413
mean anomaly at epoch: 304.5771°
orbit number at epoch: 81397

The dashed part of the orbit path shows where the satellite is in the earth's shadow,  

DLR